| time (UTC) | temp C | wind direction | speed KPH | gust KPH | rain 1hr cm | rain 24hr cm | rain mn cm | humidity % | barometer mb |
| 20260508014504 | 12 | 21 | 8.0 | 12.9 | 0.00 | 0.00 | 0.00 | 84 | 1014.4 |
| 20260508013603 | 12 | 18 | 8.0 | 14.5 | 0.00 | 0.00 | 0.00 | 84 | 1014.4 |
| 20260508012703 | 12 | 16 | 8.0 | 14.5 | 0.00 | 0.00 | 0.00 | 84 | 1014.3 |
| 20260508011803 | 12 | 12 | 8.0 | 14.5 | 0.00 | 0.00 | 0.00 | 84 | 1014.4 |
| 20260508010903 | 11 | 11 | 6.4 | 14.5 | 0.00 | 0.00 | 0.00 | 85 | 1014.3 |
| 20260508010003 | 11 | 358 | 3.2 | 14.5 | 0.00 | 0.00 | 0.00 | 87 | 1014.5 |
| 20260508005617 | 11 | 5 | 3.2 | 8.0 | 0.00 | 0.00 | 0.00 | 87 | 1014.4 |
| 20260508004504 | 11 | 286 | 1.6 | 4.8 | 0.00 | 0.00 | 0.00 | 88 | 1014.5 |
| 20260508003605 | 11 | 347 | 1.6 | 4.8 | 0.00 | 0.00 | 0.00 | 88 | 1014.5 |
| 20260508002703 | 11 | 241 | 1.6 | 3.2 | 0.00 | 0.00 | 0.00 | 89 | 1014.6 |
| 20260508001803 | 10 | 338 | 0.0 | 4.8 | 0.00 | 0.00 | 0.00 | 90 | 1014.6 |
| 20260508000903 | 10 | 0 | 0.0 | 0.0 | 0.00 | 0.00 | 0.00 | 91 | 1014.6 |
| 20260508000003 | 10 | 0 | 0.0 | 0.0 | 0.00 | 0.00 | 0.00 | 91 | 1014.6 |
| 20260507235403 | 10 | 0 | 0.0 | 0.0 | 0.00 | 0.00 | 0.00 | 91 | 1014.5 |
| 20260507234504 | 10 | 0 | 0.0 | 0.0 | 0.00 | 0.00 | 0.00 | 90 | 1014.5 |
| 20260507233603 | 10 | 0 | 0.0 | 0.0 | 0.00 | 0.00 | 0.00 | 90 | 1014.5 |
| 20260507232704 | 10 | 0 | 0.0 | 0.0 | 0.00 | 0.03 | 0.00 | 90 | 1014.5 |
| 20260507231803 | 11 | 0 | 0.0 | 0.0 | 0.00 | 0.03 | 0.00 | 90 | 1014.6 |
| 20260507230903 | 11 | 0 | 0.0 | 0.0 | 0.00 | 0.03 | 0.00 | 90 | 1014.6 |
| 20260507230217 | 11 | 0 | 0.0 | 0.0 | 0.00 | 0.03 | 0.00 | 89 | 1014.7 |
| 20260507225403 | 11 | 0 | 0.0 | 0.0 | 0.00 | 0.03 | 0.00 | 89 | 1014.7 |
| 20260507224504 | 11 | 0 | 0.0 | 0.0 | 0.00 | 0.03 | 0.00 | 89 | 1014.7 |
| 20260507223603 | 11 | 29 | 1.6 | 3.2 | 0.00 | 0.03 | 0.00 | 88 | 1014.8 |
| 20260507222703 | 11 | 29 | 1.6 | 4.8 | 0.00 | 0.03 | 0.00 | 88 | 1014.7 |
| 20260507221803 | 11 | 29 | 0.0 | 3.2 | 0.00 | 0.03 | 0.00 | 87 | 1014.7 |
| 20260507220903 | 11 | 29 | 1.6 | 3.2 | 0.00 | 0.03 | 0.00 | 87 | 1014.6 |
| 20260507220217 | 11 | 29 | 0.0 | 3.2 | 0.00 | 0.05 | 0.00 | 86 | 1014.6 |
| 20260507215404 | 11 | 0 | 0.0 | 0.0 | 0.00 | 0.05 | 0.05 | 86 | 1014.6 |
| 20260507214503 | 12 | 0 | 1.6 | 0.0 | 0.00 | 0.05 | 0.05 | 85 | 1014.7 |
| 20260507213603 | 12 | 29 | 1.6 | 4.8 | 0.00 | 0.05 | 0.05 | 85 | 1014.5 |
| 20260507212703 | 12 | 29 | 1.6 | 4.8 | 0.00 | 0.05 | 0.05 | 84 | 1014.5 |
| 20260507211804 | 12 | 29 | 0.0 | 3.2 | 0.00 | 0.05 | 0.05 | 84 | 1014.5 |
| 20260507210903 | 12 | 0 | 0.0 | 0.0 | 0.00 | 0.05 | 0.05 | 83 | 1014.5 |
| 20260507210003 | 12 | 0 | 0.0 | 0.0 | 0.00 | 0.05 | 0.05 | 82 | 1014.4 |
| 20260507205618 | 12 | 0 | 0.0 | 0.0 | 0.00 | 0.05 | 0.05 | 81 | 1014.5 |
| 20260507204503 | 12 | 40 | 1.6 | 3.2 | 0.00 | 0.05 | 0.05 | 81 | 1014.3 |
| 20260507203817 | 12 | 71 | 1.6 | 4.8 | 0.00 | 0.05 | 0.05 | 82 | 1014.3 |
| 20260507202703 | 12 | 183 | 0.0 | 4.8 | 0.00 | 0.05 | 0.05 | 82 | 1014.3 |
| 20260507202017 | 12 | 0 | 0.0 | 0.0 | 0.00 | 0.05 | 0.05 | 82 | 1014.2 |
| 20260507200903 | 12 | 207 | 0.0 | 1.6 | 0.00 | 0.05 | 0.05 | 81 | 1014.0 |
| 20260507200003 | 12 | 207 | 0.0 | 3.2 | 0.00 | 0.05 | 0.05 | 80 | 1013.8 |
| 20260507195403 | 12 | 0 | 0.0 | 0.0 | 0.00 | 0.05 | 0.05 | 80 | 1013.8 |
| 20260507194717 | 12 | 0 | 0.0 | 0.0 | 0.00 | 0.05 | 0.05 | 80 | 1013.7 |
| 20260507193604 | 13 | 0 | 0.0 | 0.0 | 0.00 | 0.05 | 0.05 | 79 | 1013.6 |
| 20260507192703 | 13 | 0 | 0.0 | 0.0 | 0.00 | 0.05 | 0.05 | 78 | 1013.4 |
| 20260507191803 | 13 | 206 | 0.0 | 1.6 | 0.00 | 0.05 | 0.05 | 77 | 1013.3 |
| 20260507190903 | 13 | 206 | 1.6 | 3.2 | 0.00 | 0.05 | 0.05 | 76 | 1013.0 |
| 20260507190218 | 14 | 206 | 0.0 | 3.2 | 0.00 | 0.05 | 0.05 | 74 | 1013.1 |
| 20260507185404 | 14 | 184 | 1.6 | 3.2 | 0.00 | 0.05 | 0.05 | 72 | 1013.1 |
| 20260507184503 | 15 | 184 | 1.6 | 3.2 | 0.00 | 0.05 | 0.05 | 69 | 1013.0 |
| 20260507183603 | 16 | 184 | 0.0 | 3.2 | 0.00 | 0.05 | 0.05 | 69 | 1012.7 |
| 20260507182704 | 16 | 184 | 1.6 | 3.2 | 0.00 | 0.05 | 0.05 | 67 | 1012.6 |
| 20260507181803 | 17 | 184 | 1.6 | 3.2 | 0.00 | 0.05 | 0.05 | 61 | 1012.6 |
| 20260507180903 | 18 | 180 | 1.6 | 3.2 | 0.00 | 0.15 | 0.05 | 60 | 1012.5 |
| 20260507180003 | 18 | 174 | 1.6 | 3.2 | 0.00 | 0.33 | 0.05 | 58 | 1012.4 |
| 20260507175403 | 18 | 168 | 1.6 | 6.4 | 0.00 | 0.38 | 0.05 | 56 | 1012.4 |
| 20260507174504 | 19 | 151 | 1.6 | 4.8 | 0.00 | 0.43 | 0.05 | 53 | 1012.2 |
| 20260507173818 | 18 | 148 | 3.2 | 6.4 | 0.00 | 0.48 | 0.05 | 52 | 1012.3 |
| 20260507172703 | 18 | 139 | 4.8 | 8.0 | 0.00 | 0.64 | 0.05 | 52 | 1012.0 |
| 20260507171804 | 19 | 139 | 3.2 | 11.3 | 0.00 | 0.69 | 0.05 | 53 | 1012.2 |
| 20260507170903 | 19 | 136 | 3.2 | 8.0 | 0.00 | 0.71 | 0.05 | 51 | 1012.1 |
| 20260507170003 | 20 | 172 | 4.8 | 9.7 | 0.00 | 0.74 | 0.05 | 53 | 1012.1 |
| 20260507165403 | 20 | 161 | 4.8 | 11.3 | 0.00 | 0.74 | 0.05 | 51 | 1012.0 |
| 20260507164503 | 20 | 160 | 4.8 | 12.9 | 0.00 | 0.74 | 0.05 | 52 | 1012.1 |
| 20260507163603 | 19 | 144 | 4.8 | 11.3 | 0.00 | 0.74 | 0.05 | 52 | 1012.1 |
| 20260507162703 | 19 | 137 | 4.8 | 12.9 | 0.00 | 0.74 | 0.05 | 52 | 1012.0 |
| 20260507161803 | 19 | 148 | 4.8 | 9.7 | 0.00 | 0.74 | 0.05 | 51 | 1011.9 |
| 20260507160903 | 20 | 127 | 3.2 | 11.3 | 0.00 | 0.74 | 0.05 | 50 | 1011.9 |
| 20260507160003 | 20 | 141 | 1.6 | 9.7 | 0.00 | 0.74 | 0.05 | 48 | 1012.0 |
| 20260507155618 | 20 | 157 | 1.6 | 6.4 | 0.00 | 0.74 | 0.05 | 53 | 1012.0 |
| 20260507154503 | 19 | 138 | 3.2 | 9.7 | 0.00 | 0.74 | 0.05 | 53 | 1011.9 |
| 20260507153603 | 19 | 142 | 3.2 | 8.0 | 0.00 | 0.74 | 0.05 | 52 | 1012.0 |
| 20260507152703 | 19 | 132 | 3.2 | 8.0 | 0.00 | 0.74 | 0.05 | 53 | 1011.9 |
| 20260507151803 | 19 | 115 | 3.2 | 6.4 | 0.00 | 0.74 | 0.05 | 52 | 1011.9 |
| 20260507150904 | 19 | 101 | 4.8 | 11.3 | 0.00 | 0.74 | 0.05 | 50 | 1012.1 |
| 20260507150003 | 19 | 98 | 6.4 | 12.9 | 0.00 | 0.74 | 0.05 | 52 | 1012.1 |
| 20260507145404 | 20 | 134 | 4.8 | 12.9 | 0.00 | 0.74 | 0.05 | 52 | 1012.1 |
| 20260507144503 | 20 | 195 | 1.6 | 8.0 | 0.00 | 0.74 | 0.05 | 52 | 1012.1 |
| 20260507143603 | 19 | 138 | 1.6 | 3.2 | 0.00 | 0.74 | 0.05 | 50 | 1012.2 |
| 20260507142703 | 18 | 154 | 3.2 | 8.0 | 0.00 | 0.74 | 0.05 | 52 | 1012.2 |
| 20260507141803 | 19 | 140 | 4.8 | 8.0 | 0.00 | 0.74 | 0.05 | 50 | 1012.2 |
| 20260507141116 | 19 | 141 | 4.8 | 12.9 | 0.00 | 0.74 | 0.05 | 52 | 1012.2 |
| 20260507140004 | 20 | 138 | 6.4 | 11.3 | 0.00 | 0.74 | 0.05 | 52 | 1012.4 |
| 20260507135403 | 20 | 152 | 6.4 | 17.7 | 0.00 | 0.74 | 0.05 | 54 | 1012.4 |
| 20260507134503 | 20 | 131 | 3.2 | 11.3 | 0.00 | 0.74 | 0.05 | 54 | 1012.4 |
| 20260507133603 | 19 | 101 | 3.2 | 11.3 | 0.00 | 0.74 | 0.05 | 56 | 1012.6 |
| 20260507132703 | 18 | 114 | 4.8 | 9.7 | 0.00 | 0.74 | 0.05 | 54 | 1012.6 |
| 20260507131804 | 18 | 119 | 6.4 | 17.7 | 0.00 | 0.74 | 0.05 | 58 | 1012.7 |
| 20260507130903 | 18 | 134 | 6.4 | 14.5 | 0.00 | 0.79 | 0.05 | 58 | 1012.8 |
| 20260507130003 | 18 | 128 | 8.0 | 17.7 | 0.00 | 0.97 | 0.05 | 56 | 1012.9 |
| 20260507125403 | 18 | 111 | 8.0 | 17.7 | 0.00 | 1.09 | 0.05 | 61 | 1012.8 |
| 20260507124718 | 18 | 118 | 6.4 | 17.7 | 0.00 | 1.32 | 0.05 | 59 | 1012.9 |
| 20260507123603 | 18 | 132 | 6.4 | 14.5 | 0.00 | 1.45 | 0.05 | 59 | 1012.9 |
| 20260507122917 | 18 | 155 | 8.0 | 16.1 | 0.00 | 1.50 | 0.05 | 61 | 1012.8 |
| 20260507121803 | 18 | 153 | 4.8 | 14.5 | 0.00 | 1.50 | 0.05 | 62 | 1013.0 |
| 20260507120903 | 17 | 127 | 4.8 | 14.5 | 0.00 | 1.50 | 0.05 | 61 | 1012.9 |
| 20260507120004 | 17 | 144 | 4.8 | 14.5 | 0.00 | 1.50 | 0.05 | 63 | 1013.0 |
| 20260507115404 | 17 | 131 | 6.4 | 12.9 | 0.00 | 1.50 | 0.05 | 60 | 1013.1 |
| 20260507114503 | 17 | 137 | 6.4 | 12.9 | 0.00 | 1.50 | 0.05 | 62 | 1013.1 |
| 20260507113817 | 17 | 125 | 8.0 | 16.1 | 0.00 | 1.50 | 0.05 | 57 | 1013.2 |
| 20260507112703 | 17 | 114 | 8.0 | 17.7 | 0.00 | 1.50 | 0.05 | 62 | 1013.3 |
| 20260507111803 | 17 | 108 | 4.8 | 17.7 | 0.00 | 1.50 | 0.05 | 62 | 1013.3 |
| 20260507111117 | 16 | 102 | 3.2 | 14.5 | 0.00 | 1.50 | 0.05 | 65 | 1013.3 |
| 20260507110003 | 16 | 188 | 3.2 | 6.4 | 0.00 | 1.50 | 0.05 | 67 | 1013.5 |
| 20260507105618 | 16 | 178 | 1.6 | 8.0 | 0.00 | 1.50 | 0.05 | 67 | 1013.5 |
| 20260507104503 | 16 | 156 | 3.2 | 9.7 | 0.00 | 1.55 | 0.05 | 70 | 1013.7 |
| 20260507103603 | 16 | 137 | 4.8 | 11.3 | 0.00 | 1.55 | 0.05 | 70 | 1013.7 |
| 20260507102703 | 16 | 168 | 4.8 | 11.3 | 0.00 | 1.55 | 0.05 | 71 | 1013.7 |
| 20260507101803 | 16 | 186 | 3.2 | 8.0 | 0.00 | 1.55 | 0.05 | 71 | 1013.8 |
| 20260507100904 | 16 | 177 | 4.8 | 9.7 | 0.00 | 1.55 | 0.05 | 71 | 1013.9 |
| 20260507100003 | 16 | 106 | 6.4 | 11.3 | 0.00 | 1.55 | 0.05 | 68 | 1013.9 |
| 20260507095618 | 16 | 112 | 6.4 | 14.5 | 0.00 | 1.55 | 0.05 | 68 | 1013.9 |
| 20260507094504 | 16 | 116 | 4.8 | 14.5 | 0.00 | 1.55 | 0.05 | 69 | 1013.9 |
| 20260507093603 | 15 | 102 | 4.8 | 12.9 | 0.00 | 1.55 | 0.05 | 70 | 1013.8 |
| 20260507092703 | 15 | 121 | 1.6 | 11.3 | 0.00 | 1.55 | 0.05 | 73 | 1013.8 |
| 20260507091803 | 15 | 132 | 1.6 | 3.2 | 0.00 | 1.55 | 0.05 | 77 | 1013.8 |
| 20260507090903 | 14 | 163 | 0.0 | 6.4 | 0.00 | 1.55 | 0.05 | 78 | 1013.7 |
| 20260507090218 | 14 | 165 | 0.0 | 6.4 | 0.00 | 1.55 | 0.05 | 79 | 1013.8 |
| 20260507085404 | 14 | 152 | 1.6 | 4.8 | 0.00 | 1.55 | 0.05 | 82 | 1013.8 |
| 20260507084504 | 14 | 148 | 1.6 | 4.8 | 0.00 | 1.55 | 0.05 | 78 | 1013.7 |
| 20260507083603 | 15 | 121 | 1.6 | 3.2 | 0.00 | 1.55 | 0.05 | 75 | 1013.6 |
| 20260507082703 | 15 | 51 | 3.2 | 6.4 | 0.00 | 1.55 | 0.05 | 72 | 1013.7 |
| 20260507082017 | 15 | 44 | 4.8 | 9.7 | 0.00 | 1.55 | 0.05 | 73 | 1013.7 |
| 20260507080903 | 15 | 41 | 4.8 | 11.3 | 0.00 | 1.55 | 0.05 | 73 | 1013.5 |
| 20260507080003 | 14 | 7 | 4.8 | 8.0 | 0.00 | 1.55 | 0.05 | 77 | 1013.4 |
| 20260507075403 | 14 | 10 | 6.4 | 11.3 | 0.00 | 1.55 | 0.05 | 78 | 1013.4 |
| 20260507074503 | 13 | 23 | 8.0 | 14.5 | 0.00 | 1.55 | 0.05 | 81 | 1013.4 |
| 20260507073603 | 12 | 15 | 4.8 | 14.5 | 0.00 | 1.55 | 0.05 | 81 | 1013.4 |
| 20260507072704 | 12 | 348 | 4.8 | 11.3 | 0.00 | 1.55 | 0.05 | 84 | 1013.4 |
| 20260507071803 | 12 | 340 | 6.4 | 14.5 | 0.00 | 1.55 | 0.05 | 86 | 1013.4 |
| 20260507070905 | 11 | 7 | 4.8 | 14.5 | 0.00 | 1.55 | 0.05 | 87 | 1013.4 |
| 20260507070006 | 11 | 6 | 6.4 | 12.9 | 0.00 | 1.55 | 0.05 | 87 | 1013.3 |
| 20260507065617 | 11 | 358 | 6.4 | 14.5 | 0.00 | 1.55 | 0.05 | 88 | 1013.3 |
| 20260507064503 | 11 | 339 | 4.8 | 14.5 | 0.00 | 1.55 | 0.05 | 89 | 1013.2 |
| 20260507063603 | 11 | 270 | 4.8 | 11.3 | 0.00 | 1.57 | 0.05 | 90 | 1013.1 |
| 20260507062703 | 11 | 333 | 4.8 | 14.5 | 0.00 | 1.57 | 0.05 | 90 | 1013.1 |
| 20260507061804 | 11 | 331 | 4.8 | 12.9 | 0.00 | 1.57 | 0.05 | 91 | 1013.1 |
| 20260507060903 | 10 | 348 | 6.4 | 12.9 | 0.00 | 1.57 | 0.05 | 91 | 1013.1 |
| 20260507060003 | 10 | 5 | 6.4 | 12.9 | 0.00 | 1.57 | 0.05 | 90 | 1012.9 |
| 20260507055403 | 10 | 6 | 8.0 | 12.9 | 0.00 | 1.57 | 0.05 | 90 | 1012.9 |
| 20260507054503 | 10 | 357 | 8.0 | 16.1 | 0.00 | 1.57 | 0.05 | 91 | 1012.8 |
| 20260507053817 | 10 | 1 | 6.4 | 16.1 | 0.00 | 1.57 | 0.05 | 91 | 1012.7 |
| 20260507052704 | 10 | 17 | 6.4 | 12.9 | 0.00 | 1.57 | 0.05 | 92 | 1012.6 |
| 20260507051803 | 10 | 18 | 4.8 | 12.9 | 0.00 | 1.57 | 0.05 | 92 | 1012.5 |
| 20260507050904 | 10 | 4 | 3.2 | 11.3 | 0.00 | 1.60 | 0.05 | 93 | 1012.5 |
| 20260507050003 | 10 | 239 | 3.2 | 4.8 | 0.00 | 1.60 | 0.05 | 93 | 1012.3 |
| 20260507045403 | 10 | 228 | 3.2 | 4.8 | 0.00 | 1.60 | 0.05 | 93 | 1012.3 |
| 20260507044503 | 10 | 286 | 6.4 | 8.0 | 0.00 | 1.60 | 0.05 | 92 | 1012.2 |
| 20260507043604 | 10 | 10 | 8.0 | 14.5 | 0.00 | 1.60 | 0.05 | 92 | 1012.1 |
| 20260507042703 | 10 | 20 | 8.0 | 14.5 | 0.00 | 1.60 | 0.05 | 92 | 1011.9 |
| 20260507041803 | 10 | 24 | 9.7 | 14.5 | 0.00 | 1.60 | 0.05 | 92 | 1011.7 |
| 20260507040903 | 10 | 24 | 8.0 | 16.1 | 0.00 | 1.60 | 0.05 | 92 | 1011.7 |
| 20260507040004 | 10 | 18 | 8.0 | 17.7 | 0.00 | 1.60 | 0.05 | 92 | 1011.8 |
| 20260507035403 | 10 | 16 | 8.0 | 17.7 | 0.00 | 1.60 | 0.05 | 92 | 1011.8 |
| 20260507034717 | 10 | 23 | 8.0 | 16.1 | 0.00 | 1.60 | 0.05 | 92 | 1011.8 |
| 20260507033603 | 10 | 19 | 6.4 | 11.3 | 0.00 | 1.63 | 0.05 | 93 | 1011.7 |
| 20260507032704 | 10 | 22 | 8.0 | 14.5 | 0.00 | 1.63 | 0.05 | 93 | 1011.7 |
| 20260507031803 | 10 | 24 | 8.0 | 14.5 | 0.00 | 1.65 | 0.05 | 93 | 1011.7 |
| 20260507031118 | 10 | 22 | 8.0 | 14.5 | 0.00 | 1.68 | 0.05 | 93 | 1011.7 |
| 20260507030003 | 10 | 19 | 9.7 | 17.7 | 0.00 | 2.08 | 0.05 | 93 | 1011.8 |
| 20260507025403 | 10 | 23 | 8.0 | 17.7 | 0.00 | 2.57 | 0.05 | 93 | 1011.7 |
| 20260507024503 | 10 | 16 | 8.0 | 12.9 | 0.00 | 2.59 | 0.05 | 93 | 1011.7 |
| 20260507023603 | 10 | 15 | 9.7 | 17.7 | 0.00 | 2.64 | 0.05 | 93 | 1011.6 |
| 20260507022704 | 10 | 10 | 8.0 | 17.7 | 0.00 | 2.67 | 0.05 | 94 | 1011.7 |
| 20260507021803 | 10 | 21 | 9.7 | 16.1 | 0.00 | 2.67 | 0.05 | 94 | 1011.9 |
| 20260507020903 | 10 | 23 | 9.7 | 16.1 | 0.00 | 2.67 | 0.05 | 94 | 1011.8 |
| 20260507020003 | 10 | 20 | 8.0 | 14.5 | 0.00 | 2.67 | 0.05 | 94 | 1011.8 |
| 20260507015403 | 10 | 21 | 6.4 | 14.5 | 0.00 | 2.67 | 0.05 | 94 | 1011.7 |